Location: Amos
(48.5670°N, 78.1170°W)
Time: 20:05:20
(UTC-04:00)

ISS - Visible Passes

Search period start: 10 October 2024 00:00
Search period end: 20 October 2024 00:00
Orbit: 412 x 423 km, 51.6° (Epoch: 10 October)

Date Brightness Start Highest point End Pass type
(mag) Time Alt. Az. Time Alt. Az. Time Alt. Az.
16 Oct -0.7 06:35:23 10° SSE 06:36:56 13° SE 06:38:30 10° ESE visible
18 Oct -1.9 06:33:25 10° SSW 06:36:18 28° SE 06:39:13 10° E visible
19 Oct -1.3 05:45:59 12° S 05:47:52 18° SE 05:50:15 10° E visible
